TimePDT,TemperatureF,Dew PointF,Humidity,Sea Level PressureIn,VisibilityMPH,Wind Direction,Wind SpeedMPH,Gust SpeedMPH,PrecipitationIn,Events,Conditions,WindDirDegrees,DateUTC
12:56 AM,66.9,26.1,21,29.81,10.0,Calm,Calm,-,N/A,,Clear,0,2013-07-22 07:56:00
1:56 AM,66.9,24.1,20,29.83,10.0,North,8.1,-,N/A,,Clear,360,2013-07-22 08:56:00
2:56 AM,66.0,26.1,22,29.82,10.0,East,4.6,-,N/A,,Clear,80,2013-07-22 09:56:00
3:56 AM,62.1,26.1,25,29.84,10.0,Calm,Calm,-,N/A,,Clear,0,2013-07-22 10:56:00
4:56 AM,57.9,28.0,32,29.87,10.0,Calm,Calm,-,N/A,,Clear,0,2013-07-22 11:56:00
5:56 AM,57.9,26.1,30,29.89,10.0,ENE,4.6,-,N/A,,Clear,60,2013-07-22 12:56:00
6:56 AM,63.0,30.0,29,29.90,10.0,East,3.5,-,N/A,,Clear,80,2013-07-22 13:56:00
7:56 AM,68.0,27.0,21,29.92,10.0,ENE,4.6,-,N/A,,Clear,60,2013-07-22 14:56:00
8:56 AM,75.9,34.0,22,29.91,10.0,Calm,Calm,-,N/A,,Clear,0,2013-07-22 15:56:00
9:56 AM,82.9,37.9,20,29.90,10.0,SW,3.5,-,N/A,,Clear,230,2013-07-22 16:56:00
10:56 AM,90.0,33.1,13,29.88,10.0,SW,8.1,-,N/A,,Clear,220,2013-07-22 17:56:00
11:56 AM,93.0,32.0,12,29.86,10.0,Variable,3.5,-,N/A,,Clear,0,2013-07-22 18:56:00
12:56 PM,97.0,28.9,9,29.85,10.0,Variable,4.6,-,N/A,,Clear,0,2013-07-22 19:56:00
1:56 PM,99.0,21.9,6,29.83,10.0,Variable,4.6,19.6,N/A,,Clear,0,2013-07-22 20:56:00
2:56 PM,99.0,21.0,6,29.81,10.0,Variable,4.6,-,N/A,,Clear,0,2013-07-22 21:56:00
3:56 PM,100.0,18.0,5,29.81,10.0,Variable,5.8,17.3,N/A,,Clear,0,2013-07-22 22:56:00
4:19 PM,98.6,21.2,6,30.00,10.0,SSW,8.1,20.7,N/A,,Clear,200,2013-07-22 23:19:00
4:56 PM,100.0,21.9,6,29.79,10.0,NW,18.4,23.0,N/A,,Clear,320,2013-07-22 23:56:00
5:56 PM,98.1,19.9,6,29.78,10.0,NW,8.1,-,N/A,,Clear,310,2013-07-23 00:56:00
6:56 PM,96.1,24.1,8,29.78,10.0,WNW,8.1,-,N/A,,Clear,300,2013-07-23 01:56:00
7:56 PM,91.9,24.1,9,29.79,10.0,WNW,9.2,-,N/A,,Clear,300,2013-07-23 02:56:00
8:56 PM,88.0,25.0,10,29.82,10.0,NNW,8.1,-,N/A,,Clear,340,2013-07-23 03:56:00
9:56 PM,86.0,26.1,11,29.84,10.0,NE,10.4,-,N/A,,Clear,40,2013-07-23 04:56:00
10:56 PM,82.0,27.0,13,29.84,10.0,East,11.5,-,N/A,,Clear,80,2013-07-23 05:56:00
11:56 PM,79.0,27.0,15,29.88,10.0,SE,11.5,-,N/A,,Clear,130,2013-07-23 06:56:00